Time,TemperatureF,DewpointF,PressureIn,WindDirection,WindDirectionDegrees,WindSpeedMPH,WindSpeedGustMPH,Humidity,HourlyPrecipIn,Conditions,Clouds,dailyrainin,SoftwareType,DateUTC
2013-08-29 00:00:00,66.0,65.7,29.90,North,0,0.7,0.7,99,0.00,,,0.00,meteobridge,2013-08-29 04:00:00,
2013-08-29 00:01:00,66.0,65.7,29.90,North,0,0.7,0.7,99,0.00,,,0.00,meteobridge,2013-08-29 04:01:00,
2013-08-29 00:02:00,66.0,65.7,29.90,North,0,0.7,0.7,99,0.00,,,0.00,meteobridge,2013-08-29 04:02:00,
2013-08-29 00:03:00,66.0,65.7,29.91,North,0,0.7,0.7,99,0.00,,,0.00,meteobridge,2013-08-29 04:03:00,
2013-08-29 00:05:00,66.0,65.7,29.91,North,0,0.7,0.7,99,0.00,,,0.00,meteobridge,2013-08-29 04:05:00,
2013-08-29 00:10:00,66.0,65.7,29.91,NNW,338,0.7,0.7,99,0.00,,,0.00,meteobridge,2013-08-29 04:10:00,
2013-08-29 00:16:00,66.2,65.8,29.91,North,0,0.0,0.7,99,0.00,,,0.00,meteobridge,2013-08-29 04:16:00,
2013-08-29 00:21:00,66.2,65.8,29.91,NE,45,0.7,0.7,99,0.00,,,0.00,meteobridge,2013-08-29 04:21:00,
2013-08-29 00:26:00,66.2,65.8,29.91,East,90,0.0,0.7,99,0.00,,,0.00,meteobridge,2013-08-29 04:26:00,
2013-08-29 00:31:00,66.4,66.0,29.91,East,90,0.7,1.6,99,0.00,,,0.00,meteobridge,2013-08-29 04:31:00,
2013-08-29 00:36:00,66.4,66.0,29.91,SW,225,0.0,0.7,99,0.00,,,0.00,meteobridge,2013-08-29 04:36:00,
2013-08-29 00:41:00,66.4,66.0,29.91,East,90,0.7,0.7,99,0.00,,,0.00,meteobridge,2013-08-29 04:41:00,
2013-08-29 00:47:00,66.4,66.0,29.91,SW,225,1.6,1.6,99,0.00,,,0.00,meteobridge,2013-08-29 04:47:00,
2013-08-29 00:52:00,66.4,66.0,29.91,North,0,0.7,1.6,99,0.00,,,0.00,meteobridge,2013-08-29 04:52:00,
2013-08-29 00:57:00,66.4,66.0,29.91,West,270,0.7,1.6,99,0.00,,,0.00,meteobridge,2013-08-29 04:57:00,
2013-08-29 01:02:00,66.4,66.0,29.91,West,270,0.0,0.7,99,0.00,,,0.00,meteobridge,2013-08-29 05:02:00,
2013-08-29 01:07:00,66.4,66.0,29.91,NW,315,0.7,1.6,99,0.00,,,0.00,meteobridge,2013-08-29 05:07:00,
2013-08-29 01:12:00,66.4,66.0,29.91,NW,315,0.0,0.7,99,0.00,,,0.00,meteobridge,2013-08-29 05:12:00,
2013-08-29 01:18:00,66.4,66.0,29.91,West,270,0.7,0.7,99,0.00,,,0.00,meteobridge,2013-08-29 05:18:00,
2013-08-29 01:23:00,66.4,66.0,29.91,North,0,0.0,0.7,99,0.00,,,0.00,meteobridge,2013-08-29 05:23:00,
2013-08-29 01:28:00,66.4,66.0,29.91,NW,315,0.0,1.6,99,0.00,,,0.00,meteobridge,2013-08-29 05:28:00,
2013-08-29 01:33:00,66.4,66.0,29.91,West,270,0.7,1.6,99,0.00,,,0.00,meteobridge,2013-08-29 05:33:00,
2013-08-29 01:38:00,66.2,65.8,29.91,South,180,0.0,1.6,99,0.00,,,0.00,meteobridge,2013-08-29 05:38:00,
2013-08-29 01:43:00,66.2,65.8,29.91,SSW,203,0.7,1.6,99,0.00,,,0.00,meteobridge,2013-08-29 05:43:00,
2013-08-29 01:49:00,66.2,65.8,29.91,NE,45,0.7,1.6,99,0.00,,,0.00,meteobridge,2013-08-29 05:49:00,
2013-08-29 01:54:00,66.2,65.8,29.91,NW,315,0.7,0.7,99,0.00,,,0.00,meteobridge,2013-08-29 05:54:00,
2013-08-29 01:59:00,66.2,65.8,29.91,SW,225,0.7,1.6,99,0.00,,,0.00,meteobridge,2013-08-29 05:59:00,
2013-08-29 02:04:00,66.2,65.8,29.91,West,270,0.0,0.0,99,0.00,,,0.00,meteobridge,2013-08-29 06:04:00,
2013-08-29 02:09:00,66.0,65.7,29.91,NW,315,0.0,0.0,99,0.00,,,0.00,meteobridge,2013-08-29 06:09:00,
2013-08-29 02:14:00,66.0,65.7,29.91,SE,135,0.7,0.7,99,0.00,,,0.00,meteobridge,2013-08-29 06:14:00,
2013-08-29 02:20:00,66.0,65.7,29.91,SW,225,0.7,0.7,99,0.00,,,0.00,meteobridge,2013-08-29 06:20:00,
2013-08-29 02:25:00,66.0,65.7,29.91,East,90,1.6,1.6,99,0.00,,,0.00,meteobridge,2013-08-29 06:25:00,
2013-08-29 02:30:00,66.0,65.7,29.91,NE,45,0.7,0.7,99,0.00,,,0.00,meteobridge,2013-08-29 06:30:00,
2013-08-29 02:35:00,66.0,65.7,29.91,East,90,1.6,1.6,99,0.00,,,0.00,meteobridge,2013-08-29 06:35:00,
2013-08-29 02:40:00,65.8,65.5,29.91,North,0,0.7,0.7,99,0.00,,,0.00,meteobridge,2013-08-29 06:40:00,
2013-08-29 02:46:00,65.8,65.5,29.91,West,270,0.7,0.7,99,0.00,,,0.00,meteobridge,2013-08-29 06:46:00,
2013-08-29 02:51:00,65.8,65.5,29.91,SW,225,0.0,0.7,99,0.00,,,0.00,meteobridge,2013-08-29 06:51:00,
2013-08-29 02:56:00,65.8,65.5,29.91,East,90,0.0,0.7,99,0.00,,,0.00,meteobridge,2013-08-29 06:56:00,
2013-08-29 03:02:00,65.8,65.5,29.91,East,90,0.7,0.7,99,0.00,,,0.00,meteobridge,2013-08-29 07:02:00,
2013-08-29 03:07:00,65.8,65.5,29.91,North,0,0.7,0.7,99,0.00,,,0.00,meteobridge,2013-08-29 07:07:00,
2013-08-29 03:13:00,65.8,65.5,29.91,NE,45,0.0,0.0,99,0.00,,,0.00,meteobridge,2013-08-29 07:13:00,
2013-08-29 03:18:00,65.8,65.5,29.91,SE,135,0.0,0.7,99,0.00,,,0.00,meteobridge,2013-08-29 07:18:00,
2013-08-29 03:23:00,65.8,65.5,29.91,West,270,0.7,0.7,99,0.00,,,0.00,meteobridge,2013-08-29 07:23:00,
2013-08-29 03:28:00,65.8,65.5,29.91,East,90,0.0,0.0,99,0.00,,,0.00,meteobridge,2013-08-29 07:28:00,
2013-08-29 03:33:00,65.8,65.5,29.92,NW,315,0.7,0.7,99,0.00,,,0.00,meteobridge,2013-08-29 07:33:00,
2013-08-29 03:38:00,65.7,65.3,29.92,SW,225,0.7,1.6,99,0.00,,,0.00,meteobridge,2013-08-29 07:38:00,
2013-08-29 03:44:00,65.7,65.3,29.92,SE,135,1.6,1.6,99,0.00,,,0.00,meteobridge,2013-08-29 07:44:00,
2013-08-29 03:49:00,65.7,65.3,29.92,NW,315,1.6,1.6,99,0.00,,,0.00,meteobridge,2013-08-29 07:49:00,
2013-08-29 03:54:00,65.5,65.1,29.92,North,0,0.0,2.2,99,0.00,,,0.00,meteobridge,2013-08-29 07:54:00,
2013-08-29 03:59:00,65.5,65.1,29.92,SE,135,0.7,2.2,99,0.00,,,0.00,meteobridge,2013-08-29 07:59:00,
2013-08-29 04:04:00,65.5,65.1,29.92,NW,315,0.7,0.7,99,0.00,,,0.00,meteobridge,2013-08-29 08:04:00,
2013-08-29 04:09:00,65.3,64.9,29.92,NW,315,0.7,1.6,99,0.00,,,0.00,meteobridge,2013-08-29 08:09:00,
2013-08-29 04:15:00,65.3,64.9,29.92,SW,225,0.7,0.7,99,0.00,,,0.00,meteobridge,2013-08-29 08:15:00,
2013-08-29 04:20:00,65.1,64.8,29.92,West,270,0.7,1.6,99,0.00,,,0.00,meteobridge,2013-08-29 08:20:00,
2013-08-29 04:25:00,65.1,64.8,29.92,NE,45,0.0,1.6,99,0.00,,,0.00,meteobridge,2013-08-29 08:25:00,
2013-08-29 04:30:00,64.9,64.6,29.92,SSE,158,0.7,1.6,99,0.00,,,0.00,meteobridge,2013-08-29 08:30:00,
2013-08-29 04:35:00,64.8,64.4,29.92,SE,135,0.0,0.7,99,0.00,,,0.00,meteobridge,2013-08-29 08:35:00,
2013-08-29 04:40:00,64.8,64.4,29.92,SE,135,1.6,3.1,99,0.00,,,0.00,meteobridge,2013-08-29 08:40:00,
2013-08-29 04:46:00,64.6,64.2,29.92,East,90,0.7,1.6,99,0.00,,,0.00,meteobridge,2013-08-29 08:46:00,
2013-08-29 04:51:00,64.6,64.2,29.93,East,90,3.1,3.1,99,0.00,,,0.00,meteobridge,2013-08-29 08:51:00,
2013-08-29 04:56:00,64.4,64.0,29.93,SE,135,1.6,1.6,99,0.00,,,0.00,meteobridge,2013-08-29 08:56:00,
2013-08-29 05:01:00,64.4,64.0,29.93,NW,315,0.0,0.7,99,0.00,,,0.00,meteobridge,2013-08-29 09:01:00,
2013-08-29 05:06:00,64.2,63.3,29.93,East,90,1.6,3.8,97,0.00,,,0.00,meteobridge,2013-08-29 09:06:00,
2013-08-29 05:11:00,64.2,63.3,29.93,South,180,2.2,2.2,97,0.00,,,0.00,meteobridge,2013-08-29 09:11:00,
2013-08-29 05:17:00,64.2,63.3,29.93,North,0,0.7,1.6,97,0.00,,,0.00,meteobridge,2013-08-29 09:17:00,
2013-08-29 05:22:00,64.2,63.3,29.93,West,270,1.6,1.6,97,0.00,,,0.00,meteobridge,2013-08-29 09:22:00,
2013-08-29 05:27:00,64.2,63.3,29.93,NE,45,0.7,1.6,97,0.00,,,0.00,meteobridge,2013-08-29 09:27:00,
2013-08-29 05:32:00,64.2,63.3,29.93,North,0,0.7,1.6,97,0.00,,,0.00,meteobridge,2013-08-29 09:32:00,
2013-08-29 05:37:00,64.2,63.3,29.93,East,90,0.7,1.6,97,0.00,,,0.00,meteobridge,2013-08-29 09:37:00,
2013-08-29 05:42:00,64.2,63.3,29.93,West,270,2.2,2.2,97,0.00,,,0.00,meteobridge,2013-08-29 09:42:00,
2013-08-29 05:48:00,64.2,63.3,29.93,SW,225,0.7,2.2,97,0.00,,,0.00,meteobridge,2013-08-29 09:48:00,
2013-08-29 05:53:00,64.2,63.3,29.93,NW,315,0.7,0.7,97,0.00,,,0.00,meteobridge,2013-08-29 09:53:00,
2013-08-29 05:58:00,64.2,63.3,29.93,SE,135,0.0,1.6,97,0.00,,,0.00,meteobridge,2013-08-29 09:58:00,
2013-08-29 06:03:00,64.4,64.0,29.94,SE,135,0.0,0.0,99,0.00,,,0.00,meteobridge,2013-08-29 10:03:00,
2013-08-29 06:08:00,64.4,64.0,29.94,North,0,0.7,0.7,99,0.00,,,0.00,meteobridge,2013-08-29 10:08:00,
2013-08-29 06:13:00,64.4,64.0,29.94,NE,45,1.6,1.6,99,0.00,,,0.00,meteobridge,2013-08-29 10:13:00,
2013-08-29 06:19:00,64.4,64.0,29.94,SSW,203,0.7,0.7,99,0.00,,,0.00,meteobridge,2013-08-29 10:19:00,
2013-08-29 06:24:00,64.4,64.0,29.95,East,90,0.0,0.7,99,0.00,,,0.00,meteobridge,2013-08-29 10:24:00,
2013-08-29 06:29:00,64.6,64.2,29.95,South,180,0.7,1.6,99,0.00,,,0.00,meteobridge,2013-08-29 10:29:00,
2013-08-29 06:34:00,64.6,64.2,29.95,East,90,0.0,0.7,99,0.00,,,0.00,meteobridge,2013-08-29 10:34:00,
2013-08-29 06:39:00,64.6,64.2,29.95,NNW,338,0.7,0.7,99,0.00,,,0.00,meteobridge,2013-08-29 10:39:00,
2013-08-29 06:44:00,64.8,64.4,29.95,West,270,0.7,1.6,99,0.00,,,0.00,meteobridge,2013-08-29 10:44:00,
2013-08-29 06:50:00,64.9,64.6,29.95,East,90,0.7,0.7,99,0.00,,,0.00,meteobridge,2013-08-29 10:50:00,
2013-08-29 06:55:00,64.9,64.6,29.95,NW,315,2.2,2.2,99,0.00,,,0.00,meteobridge,2013-08-29 10:55:00,
2013-08-29 07:00:00,65.1,64.8,29.95,South,180,0.0,1.6,99,0.00,,,0.00,meteobridge,2013-08-29 11:00:00,
2013-08-29 07:05:00,65.1,64.8,29.95,NW,315,1.6,1.6,99,0.00,,,0.00,meteobridge,2013-08-29 11:05:00,
2013-08-29 07:10:00,65.1,64.8,29.95,SW,225,1.6,1.6,99,0.00,,,0.00,meteobridge,2013-08-29 11:10:00,
2013-08-29 07:15:00,64.9,64.6,29.95,West,270,1.6,1.6,99,0.00,,,0.00,meteobridge,2013-08-29 11:15:00,
2013-08-29 07:21:00,64.9,64.6,29.95,SE,135,0.0,1.6,99,0.00,,,0.00,meteobridge,2013-08-29 11:21:00,
2013-08-29 07:26:00,64.9,64.6,29.95,West,270,2.2,2.2,99,0.00,,,0.00,meteobridge,2013-08-29 11:26:00,
2013-08-29 07:31:00,65.1,64.8,29.95,West,270,0.7,0.7,99,0.00,,,0.00,meteobridge,2013-08-29 11:31:00,
2013-08-29 07:36:00,65.1,64.8,29.95,West,270,0.7,0.7,99,0.00,,,0.00,meteobridge,2013-08-29 11:36:00,
2013-08-29 07:41:00,64.9,64.6,29.95,West,270,2.2,2.2,99,0.00,,,0.00,meteobridge,2013-08-29 11:41:00,
2013-08-29 07:46:00,64.9,64.6,29.95,NW,315,1.6,1.6,99,0.00,,,0.00,meteobridge,2013-08-29 11:46:00,
2013-08-29 07:52:00,64.9,64.6,29.95,West,270,0.7,0.7,99,0.00,,,0.00,meteobridge,2013-08-29 11:52:00,
2013-08-29 07:57:00,65.1,64.8,29.95,SE,135,0.7,1.6,99,0.00,,,0.00,meteobridge,2013-08-29 11:57:00,
2013-08-29 08:02:00,65.3,64.9,29.95,SW,225,0.0,0.7,99,0.00,,,0.00,meteobridge,2013-08-29 12:02:00,
2013-08-29 08:07:00,65.7,65.3,29.95,North,0,0.7,1.6,99,0.00,,,0.00,meteobridge,2013-08-29 12:07:00,
2013-08-29 08:12:00,65.8,65.5,29.95,South,180,1.6,3.1,99,0.00,,,0.00,meteobridge,2013-08-29 12:12:00,
2013-08-29 08:18:00,65.8,65.5,29.96,SW,225,0.0,0.7,99,0.00,,,0.00,meteobridge,2013-08-29 12:18:00,
2013-08-29 08:23:00,66.0,65.7,29.96,NW,315,2.2,2.2,99,0.00,,,0.00,meteobridge,2013-08-29 12:23:00,
2013-08-29 08:28:00,65.8,65.5,29.96,East,90,0.0,1.6,99,0.00,,,0.00,meteobridge,2013-08-29 12:28:00,
2013-08-29 08:33:00,65.8,65.5,29.96,West,270,0.0,0.0,99,0.00,,,0.00,meteobridge,2013-08-29 12:33:00,
2013-08-29 08:38:00,65.8,65.5,29.97,SE,135,0.0,0.0,99,0.00,,,0.00,meteobridge,2013-08-29 12:38:00,
2013-08-29 08:43:00,65.7,65.3,29.97,NW,315,0.7,1.6,99,0.00,,,0.00,meteobridge,2013-08-29 12:43:00,
2013-08-29 08:49:00,65.7,65.3,29.97,East,90,0.7,1.6,99,0.00,,,0.00,meteobridge,2013-08-29 12:49:00,
2013-08-29 08:54:00,65.5,65.1,29.97,West,270,0.7,1.6,99,0.00,,,0.00,meteobridge,2013-08-29 12:54:00,
2013-08-29 08:59:00,65.5,65.1,29.96,North,0,0.7,0.7,99,0.00,,,0.00,meteobridge,2013-08-29 12:59:00,
2013-08-29 09:04:00,65.7,65.3,29.97,NE,45,0.7,1.6,99,0.00,,,0.00,meteobridge,2013-08-29 13:04:00,
2013-08-29 09:09:00,65.7,65.3,29.97,SW,225,2.2,2.2,99,0.00,,,0.00,meteobridge,2013-08-29 13:09:00,
2013-08-29 09:14:00,65.8,65.5,29.97,NE,45,0.0,1.6,99,0.00,,,0.00,meteobridge,2013-08-29 13:14:00,
2013-08-29 09:20:00,65.8,65.5,29.98,NE,45,0.7,1.6,99,0.00,,,0.00,meteobridge,2013-08-29 13:20:00,
2013-08-29 09:25:00,65.8,65.5,29.98,West,270,0.0,0.0,99,0.00,,,0.00,meteobridge,2013-08-29 13:25:00,
2013-08-29 09:30:00,65.8,65.5,29.98,SSW,203,0.0,0.0,99,0.00,,,0.00,meteobridge,2013-08-29 13:30:00,
2013-08-29 09:35:00,66.0,65.7,29.98,SE,135,0.0,0.7,99,0.00,,,0.00,meteobridge,2013-08-29 13:35:00,
2013-08-29 09:40:00,66.4,66.0,29.98,North,0,0.0,0.0,99,0.00,,,0.00,meteobridge,2013-08-29 13:40:00,
2013-08-29 09:45:00,66.6,66.2,29.98,East,90,0.7,0.7,99,0.00,,,0.00,meteobridge,2013-08-29 13:45:00,
2013-08-29 09:51:00,66.7,66.4,29.98,West,270,0.7,2.2,99,0.00,,,0.00,meteobridge,2013-08-29 13:51:00,
2013-08-29 09:56:00,66.7,66.4,29.98,West,270,2.2,2.2,99,0.00,,,0.00,meteobridge,2013-08-29 13:56:00,
2013-08-29 10:01:00,67.1,66.7,29.98,West,270,0.0,0.0,99,0.00,,,0.00,meteobridge,2013-08-29 14:01:00,
2013-08-29 10:06:00,67.3,66.9,29.98,West,270,0.7,1.6,99,0.00,,,0.00,meteobridge,2013-08-29 14:06:00,
2013-08-29 10:11:00,67.5,67.1,29.98,NE,45,1.6,1.6,99,0.00,,,0.00,meteobridge,2013-08-29 14:11:00,
2013-08-29 10:16:00,67.6,67.3,29.98,NE,45,0.0,0.7,99,0.00,,,0.00,meteobridge,2013-08-29 14:16:00,
2013-08-29 10:22:00,68.0,67.1,29.98,North,0,0.0,0.7,97,0.00,,,0.00,meteobridge,2013-08-29 14:22:00,
2013-08-29 10:27:00,68.2,67.3,29.98,West,270,0.0,0.7,97,0.00,,,0.00,meteobridge,2013-08-29 14:27:00,
2013-08-29 10:32:00,68.2,67.3,29.98,SW,225,3.1,3.1,97,0.00,,,0.00,meteobridge,2013-08-29 14:32:00,
2013-08-29 10:37:00,68.2,66.9,29.98,East,90,0.7,0.7,96,0.00,,,0.00,meteobridge,2013-08-29 14:37:00,
2013-08-29 10:42:00,68.0,66.7,29.98,North,0,0.7,3.1,96,0.00,,,0.00,meteobridge,2013-08-29 14:42:00,
2013-08-29 10:47:00,68.2,66.9,29.98,SE,135,0.0,0.7,96,0.00,,,0.00,meteobridge,2013-08-29 14:47:00,
2013-08-29 10:53:00,68.2,66.9,29.98,SE,135,1.6,1.6,96,0.00,,,0.00,meteobridge,2013-08-29 14:53:00,
2013-08-29 10:58:00,68.4,66.9,29.99,SE,135,1.6,2.2,95,0.00,,,0.00,meteobridge,2013-08-29 14:58:00,
2013-08-29 11:03:00,68.4,66.9,29.99,NW,315,2.2,2.2,95,0.00,,,0.00,meteobridge,2013-08-29 15:03:00,
2013-08-29 11:08:00,68.4,66.9,29.99,West,270,1.6,1.6,95,0.00,,,0.00,meteobridge,2013-08-29 15:08:00,
2013-08-29 11:13:00,68.4,66.9,29.99,West,270,1.6,2.2,95,0.00,,,0.00,meteobridge,2013-08-29 15:13:00,
2013-08-29 11:18:00,68.4,66.6,29.99,West,270,2.2,2.2,94,0.00,,,0.00,meteobridge,2013-08-29 15:18:00,
2013-08-29 11:24:00,68.4,66.6,29.99,NNE,23,0.7,0.7,94,0.00,,,0.00,meteobridge,2013-08-29 15:24:00,
2013-08-29 11:29:00,68.2,66.4,29.99,East,90,1.6,1.6,94,0.00,,,0.00,meteobridge,2013-08-29 15:29:00,
2013-08-29 11:34:00,68.0,66.2,29.99,NW,315,0.7,2.2,94,0.00,,,0.00,meteobridge,2013-08-29 15:34:00,
2013-08-29 11:39:00,67.6,65.8,30.00,NE,45,1.6,2.2,94,0.00,,,0.00,meteobridge,2013-08-29 15:39:00,
2013-08-29 11:44:00,67.6,65.8,30.00,East,90,1.6,1.6,94,0.00,,,0.00,meteobridge,2013-08-29 15:44:00,
2013-08-29 11:49:00,67.8,66.0,29.99,West,270,1.6,3.8,94,0.00,,,0.00,meteobridge,2013-08-29 15:49:00,
2013-08-29 11:55:00,67.8,66.0,29.99,West,270,1.6,1.6,94,0.00,,,0.00,meteobridge,2013-08-29 15:55:00,
2013-08-29 12:00:00,68.0,65.8,29.99,West,270,1.6,2.2,93,0.00,,,0.00,meteobridge,2013-08-29 16:00:00,
2013-08-29 12:05:00,68.2,66.0,29.99,West,270,6.0,6.0,93,0.00,,,0.00,meteobridge,2013-08-29 16:05:00,
2013-08-29 12:10:00,68.5,65.8,29.99,SW,225,0.7,2.2,91,0.00,,,0.00,meteobridge,2013-08-29 16:10:00,
2013-08-29 12:15:00,70.2,66.7,29.99,NW,315,2.2,2.2,89,0.00,,,0.00,meteobridge,2013-08-29 16:15:00,
2013-08-29 12:20:00,71.6,66.9,29.98,SW,225,0.7,2.2,85,0.00,,,0.00,meteobridge,2013-08-29 16:20:00,
2013-08-29 12:26:00,72.3,66.6,29.98,NE,45,0.7,3.1,82,0.00,,,0.00,meteobridge,2013-08-29 16:26:00,
2013-08-29 12:31:00,72.0,66.2,29.98,WNW,293,1.6,1.6,82,0.00,,,0.00,meteobridge,2013-08-29 16:31:00,
2013-08-29 12:36:00,71.6,65.8,29.99,NE,45,2.2,2.2,82,0.00,,,0.00,meteobridge,2013-08-29 16:36:00,
2013-08-29 12:41:00,71.1,65.7,29.98,North,0,2.2,2.2,83,0.00,,,0.00,meteobridge,2013-08-29 16:41:00,
2013-08-29 12:46:00,70.3,64.6,29.98,West,270,0.7,3.8,82,0.00,,,0.00,meteobridge,2013-08-29 16:46:00,
2013-08-29 12:51:00,70.2,64.8,29.98,SW,225,0.7,1.6,83,0.00,,,0.00,meteobridge,2013-08-29 16:51:00,
2013-08-29 12:57:00,70.0,64.9,29.98,North,0,0.0,2.2,84,0.00,,,0.00,meteobridge,2013-08-29 16:57:00,
2013-08-29 13:02:00,70.0,64.9,29.98,SE,135,1.6,1.6,84,0.00,,,0.00,meteobridge,2013-08-29 17:02:00,
2013-08-29 13:07:00,70.0,65.3,29.98,NE,45,0.7,3.1,85,0.00,,,0.00,meteobridge,2013-08-29 17:07:00,
2013-08-29 13:12:00,69.6,65.3,29.98,West,270,1.6,2.2,86,0.00,,,0.00,meteobridge,2013-08-29 17:12:00,
2013-08-29 13:17:00,69.1,64.8,29.98,SW,225,1.6,3.8,86,0.00,,,0.00,meteobridge,2013-08-29 17:17:00,
2013-08-29 13:22:00,68.4,64.4,29.98,SW,225,1.6,3.8,87,0.00,,,0.00,meteobridge,2013-08-29 17:22:00,
2013-08-29 13:28:00,68.0,64.4,29.98,East,90,2.2,2.2,88,0.00,,,0.00,meteobridge,2013-08-29 17:28:00,
2013-08-29 13:33:00,67.8,64.8,29.98,NW,315,0.7,1.6,90,0.00,,,0.00,meteobridge,2013-08-29 17:33:00,
2013-08-29 13:38:00,67.8,65.1,29.98,NW,315,2.2,2.2,91,0.00,,,0.00,meteobridge,2013-08-29 17:38:00,
2013-08-29 13:43:00,68.2,65.1,29.98,West,270,2.2,2.2,90,0.00,,,0.00,meteobridge,2013-08-29 17:43:00,
2013-08-29 13:48:00,68.5,65.5,29.98,NE,45,1.6,1.6,90,0.00,,,0.00,meteobridge,2013-08-29 17:48:00,
2013-08-29 13:53:00,68.7,65.3,29.98,East,90,1.6,3.1,89,0.00,,,0.00,meteobridge,2013-08-29 17:53:00,
2013-08-29 13:59:00,68.5,65.1,29.98,East,90,0.7,0.7,89,0.00,,,0.00,meteobridge,2013-08-29 17:59:00,
2013-08-29 14:04:00,68.7,64.9,29.98,SE,135,1.6,3.1,88,0.00,,,0.00,meteobridge,2013-08-29 18:04:00,
2013-08-29 14:09:00,68.7,64.8,29.98,East,90,2.2,2.2,87,0.00,,,0.00,meteobridge,2013-08-29 18:09:00,
2013-08-29 14:14:00,68.5,64.6,29.98,SW,225,3.1,3.1,87,0.00,,,0.00,meteobridge,2013-08-29 18:14:00,
2013-08-29 14:19:00,68.7,64.8,29.98,East,90,2.2,2.2,87,0.00,,,0.00,meteobridge,2013-08-29 18:19:00,
2013-08-29 14:24:00,69.1,65.1,29.98,West,270,1.6,3.8,87,0.00,,,0.00,meteobridge,2013-08-29 18:24:00,
2013-08-29 14:30:00,69.3,64.9,29.98,East,90,3.8,3.8,86,0.00,,,0.00,meteobridge,2013-08-29 18:30:00,
2013-08-29 14:35:00,69.6,64.9,29.98,North,0,1.6,2.2,85,0.00,,,0.00,meteobridge,2013-08-29 18:35:00,
2013-08-29 14:40:00,70.2,64.8,29.98,NE,45,1.6,2.2,83,0.00,,,0.00,meteobridge,2013-08-29 18:40:00,
2013-08-29 14:45:00,70.3,64.6,29.98,WSW,248,3.1,3.8,82,0.00,,,0.00,meteobridge,2013-08-29 18:45:00,
2013-08-29 14:50:00,70.7,64.9,29.98,SE,135,3.1,3.1,82,0.00,,,0.00,meteobridge,2013-08-29 18:50:00,
2013-08-29 14:56:00,70.3,63.9,29.98,NNE,23,3.1,3.1,80,0.00,,,0.00,meteobridge,2013-08-29 18:56:00,
2013-08-29 15:01:00,70.3,64.2,29.98,WNW,293,1.6,2.2,81,0.00,,,0.00,meteobridge,2013-08-29 19:01:00,
2013-08-29 15:06:00,70.2,64.0,29.98,North,0,2.2,2.2,81,0.00,,,0.00,meteobridge,2013-08-29 19:06:00,
2013-08-29 15:11:00,70.0,63.9,29.98,SE,135,1.6,1.6,81,0.00,,,0.00,meteobridge,2013-08-29 19:11:00,
2013-08-29 15:16:00,69.8,64.0,29.98,North,0,1.6,2.2,82,0.00,,,0.00,meteobridge,2013-08-29 19:16:00,
2013-08-29 15:21:00,69.6,63.9,29.98,NW,315,0.7,2.2,82,0.00,,,0.00,meteobridge,2013-08-29 19:21:00,
2013-08-29 15:27:00,69.4,64.0,29.98,NE,45,1.6,1.6,83,0.00,,,0.00,meteobridge,2013-08-29 19:27:00,
2013-08-29 15:32:00,69.3,63.9,29.98,East,90,1.6,1.6,83,0.00,,,0.00,meteobridge,2013-08-29 19:32:00,
2013-08-29 15:37:00,69.3,63.9,29.98,South,180,0.7,2.2,83,0.00,,,0.00,meteobridge,2013-08-29 19:37:00,
2013-08-29 15:42:00,68.9,63.5,29.98,East,90,1.6,1.6,83,0.00,,,0.00,meteobridge,2013-08-29 19:42:00,
2013-08-29 15:47:00,68.5,63.1,29.98,West,270,1.6,2.2,83,0.00,,,0.00,meteobridge,2013-08-29 19:47:00,
2013-08-29 15:52:00,68.2,63.1,29.98,East,90,0.7,0.7,84,0.00,,,0.00,meteobridge,2013-08-29 19:52:00,
2013-08-29 15:58:00,67.8,63.1,29.99,NW,315,2.2,2.2,85,0.00,,,0.00,meteobridge,2013-08-29 19:58:00,
2013-08-29 16:03:00,67.5,62.8,29.98,SE,135,2.2,2.2,85,0.00,,,0.00,meteobridge,2013-08-29 20:03:00,
2013-08-29 16:08:00,66.9,62.6,29.99,NW,315,0.7,1.6,86,0.00,,,0.00,meteobridge,2013-08-29 20:08:00,
2013-08-29 16:13:00,66.7,62.4,29.99,SW,225,1.6,1.6,86,0.00,,,0.00,meteobridge,2013-08-29 20:13:00,
2013-08-29 16:18:00,66.6,62.2,29.99,SE,135,2.2,3.1,86,0.00,,,0.00,meteobridge,2013-08-29 20:18:00,
2013-08-29 16:23:00,66.2,62.2,29.99,West,270,1.6,1.6,87,0.00,,,0.00,meteobridge,2013-08-29 20:23:00,
2013-08-29 16:29:00,66.0,62.4,29.99,NNW,338,0.7,1.6,88,0.00,,,0.00,meteobridge,2013-08-29 20:29:00,
2013-08-29 16:34:00,65.8,62.4,29.99,NW,315,2.2,2.2,89,0.00,,,0.00,meteobridge,2013-08-29 20:34:00,
2013-08-29 16:39:00,65.7,62.2,29.99,SE,135,1.6,1.6,89,0.00,,,0.00,meteobridge,2013-08-29 20:39:00,
2013-08-29 16:44:00,65.7,62.2,29.99,East,90,2.2,3.1,89,0.00,,,0.00,meteobridge,2013-08-29 20:44:00,
2013-08-29 16:49:00,65.5,62.2,29.99,West,270,0.7,2.2,89,0.00,,,0.00,meteobridge,2013-08-29 20:49:00,
2013-08-29 16:54:00,65.5,62.2,29.99,East,90,1.6,2.2,89,0.00,,,0.00,meteobridge,2013-08-29 20:54:00,
2013-08-29 17:00:00,65.5,62.2,30.00,West,270,3.1,4.5,89,0.00,,,0.00,meteobridge,2013-08-29 21:00:00,
2013-08-29 17:05:00,65.3,62.1,30.00,West,270,1.6,1.6,89,0.00,,,0.00,meteobridge,2013-08-29 21:05:00,
2013-08-29 17:10:00,65.1,61.9,30.00,West,270,0.7,1.6,89,0.00,,,0.00,meteobridge,2013-08-29 21:10:00,
2013-08-29 17:15:00,65.1,61.9,30.00,SE,135,1.6,1.6,89,0.00,,,0.00,meteobridge,2013-08-29 21:15:00,
2013-08-29 17:20:00,64.9,61.7,30.00,North,0,0.7,1.6,89,0.00,,,0.00,meteobridge,2013-08-29 21:20:00,
2013-08-29 17:25:00,65.1,61.9,30.00,NE,45,1.6,2.2,89,0.00,,,0.00,meteobridge,2013-08-29 21:25:00,
2013-08-29 17:31:00,64.9,61.7,30.00,NW,315,1.6,2.2,89,0.00,,,0.00,meteobridge,2013-08-29 21:31:00,
2013-08-29 17:36:00,64.9,61.7,30.00,NW,315,1.6,1.6,89,0.00,,,0.00,meteobridge,2013-08-29 21:36:00,
2013-08-29 17:41:00,64.8,61.5,30.00,East,90,1.6,1.6,89,0.00,,,0.00,meteobridge,2013-08-29 21:41:00,
2013-08-29 17:46:00,64.8,61.5,30.00,North,0,1.6,3.8,89,0.00,,,0.00,meteobridge,2013-08-29 21:46:00,
2013-08-29 17:51:00,64.6,61.3,30.00,East,90,3.8,3.8,89,0.00,,,0.00,meteobridge,2013-08-29 21:51:00,
2013-08-29 17:56:00,64.6,61.3,30.00,NW,315,1.6,1.6,89,0.00,,,0.00,meteobridge,2013-08-29 21:56:00,
2013-08-29 18:02:00,64.6,61.3,30.00,West,270,1.6,3.1,89,0.00,,,0.00,meteobridge,2013-08-29 22:02:00,
2013-08-29 18:07:00,64.6,61.3,30.00,West,270,1.6,2.2,89,0.00,,,0.00,meteobridge,2013-08-29 22:07:00,
2013-08-29 18:12:00,64.4,60.8,30.00,East,90,1.6,2.2,88,0.00,,,0.00,meteobridge,2013-08-29 22:12:00,
2013-08-29 18:17:00,64.2,60.6,30.00,East,90,1.6,1.6,88,0.00,,,0.00,meteobridge,2013-08-29 22:17:00,
2013-08-29 18:22:00,64.0,60.1,30.00,North,0,0.7,3.1,87,0.00,,,0.00,meteobridge,2013-08-29 22:22:00,
2013-08-29 18:27:00,63.9,59.9,30.00,SE,135,1.6,3.1,87,0.00,,,0.00,meteobridge,2013-08-29 22:27:00,
2013-08-29 18:33:00,63.7,59.7,30.00,West,270,1.6,1.6,87,0.00,,,0.00,meteobridge,2013-08-29 22:33:00,
2013-08-29 18:38:00,63.7,60.1,30.01,SW,225,2.2,2.2,88,0.00,,,0.00,meteobridge,2013-08-29 22:38:00,
2013-08-29 18:43:00,63.5,59.5,30.00,North,0,0.7,1.6,87,0.00,,,0.00,meteobridge,2013-08-29 22:43:00,
2013-08-29 18:48:00,63.3,59.4,30.01,NW,315,2.2,2.2,87,0.00,,,0.00,meteobridge,2013-08-29 22:48:00,
2013-08-29 18:53:00,63.3,59.7,30.01,NE,45,0.7,0.7,88,0.00,,,0.00,meteobridge,2013-08-29 22:53:00,
2013-08-29 18:58:00,63.3,59.7,30.01,NW,315,0.7,0.7,88,0.00,,,0.00,meteobridge,2013-08-29 22:58:00,
2013-08-29 19:04:00,63.3,59.7,30.01,North,0,0.7,0.7,88,0.00,,,0.00,meteobridge,2013-08-29 23:04:00,
2013-08-29 19:09:00,63.3,59.7,30.01,South,180,0.7,2.2,88,0.00,,,0.00,meteobridge,2013-08-29 23:09:00,
2013-08-29 19:14:00,63.1,59.5,30.01,NW,315,0.0,1.6,88,0.00,,,0.00,meteobridge,2013-08-29 23:14:00,
2013-08-29 19:19:00,63.1,59.2,30.00,West,270,0.7,1.6,87,0.00,,,0.00,meteobridge,2013-08-29 23:19:00,
2013-08-29 19:24:00,63.0,59.0,30.00,West,270,1.6,1.6,87,0.00,,,0.00,meteobridge,2013-08-29 23:24:00,
2013-08-29 19:29:00,63.0,59.0,30.00,North,0,1.6,1.6,87,0.00,,,0.00,meteobridge,2013-08-29 23:29:00,
2013-08-29 19:35:00,63.0,59.0,30.00,South,180,1.6,1.6,87,0.00,,,0.00,meteobridge,2013-08-29 23:35:00,
2013-08-29 19:40:00,62.8,58.8,30.00,East,90,0.7,1.6,87,0.00,,,0.00,meteobridge,2013-08-29 23:40:00,
2013-08-29 19:45:00,62.8,59.2,30.00,SE,135,2.2,2.2,88,0.00,,,0.00,meteobridge,2013-08-29 23:45:00,
2013-08-29 19:50:00,62.6,58.6,30.00,NW,315,3.1,3.8,87,0.00,,,0.00,meteobridge,2013-08-29 23:50:00,
2013-08-29 19:55:00,62.6,58.6,30.00,NE,45,0.7,0.7,87,0.00,,,0.00,meteobridge,2013-08-29 23:55:00,
2013-08-29 20:00:00,62.6,58.6,30.00,South,180,0.7,0.7,87,0.00,,,0.00,meteobridge,2013-08-30 00:00:00,
2013-08-29 20:06:00,62.6,58.6,30.00,West,270,0.7,1.6,87,0.00,,,0.00,meteobridge,2013-08-30 00:06:00,
2013-08-29 20:11:00,62.4,58.8,30.00,North,0,0.7,1.6,88,0.00,,,0.00,meteobridge,2013-08-30 00:11:00,
2013-08-29 20:16:00,62.4,58.8,30.00,West,270,0.7,1.6,88,0.00,,,0.00,meteobridge,2013-08-30 00:16:00,
2013-08-29 20:21:00,62.4,58.8,30.00,SW,225,0.7,1.6,88,0.00,,,0.00,meteobridge,2013-08-30 00:21:00,
2013-08-29 20:26:00,62.4,58.8,30.00,NE,45,0.7,0.7,88,0.00,,,0.00,meteobridge,2013-08-30 00:26:00,
2013-08-29 20:32:00,62.4,58.8,30.00,SW,225,0.7,2.2,88,0.00,,,0.00,meteobridge,2013-08-30 00:32:00,
2013-08-29 20:37:00,62.4,58.8,30.00,East,90,2.2,2.2,88,0.00,,,0.00,meteobridge,2013-08-30 00:37:00,
2013-08-29 20:42:00,62.4,58.8,30.00,West,270,3.1,3.1,88,0.00,,,0.00,meteobridge,2013-08-30 00:42:00,
2013-08-29 20:47:00,62.4,58.5,30.00,West,270,0.7,0.7,87,0.00,,,0.00,meteobridge,2013-08-30 00:47:00,
2013-08-29 20:52:00,62.4,58.5,30.00,West,270,1.6,1.6,87,0.00,,,0.00,meteobridge,2013-08-30 00:52:00,
2013-08-29 20:57:00,62.4,58.5,29.99,NW,315,1.6,1.6,87,0.00,,,0.00,meteobridge,2013-08-30 00:57:00,
2013-08-29 21:03:00,62.6,58.3,29.99,NE,45,0.7,0.7,86,0.00,,,0.00,meteobridge,2013-08-30 01:03:00,
2013-08-29 21:08:00,62.6,58.3,30.00,South,180,1.6,1.6,86,0.00,,,0.00,meteobridge,2013-08-30 01:08:00,
2013-08-29 21:13:00,62.4,58.5,29.99,West,270,0.7,1.6,87,0.00,,,0.00,meteobridge,2013-08-30 01:13:00,
2013-08-29 21:18:00,62.4,58.5,29.99,West,270,0.7,1.6,87,0.00,,,0.00,meteobridge,2013-08-30 01:18:00,
2013-08-29 21:23:00,62.2,58.3,30.00,West,270,3.1,3.1,87,0.00,,,0.00,meteobridge,2013-08-30 01:23:00,
2013-08-29 21:28:00,62.1,58.1,29.99,North,0,0.0,1.6,87,0.00,,,0.00,meteobridge,2013-08-30 01:28:00,
2013-08-29 21:34:00,62.1,58.5,30.00,SE,135,0.7,2.2,88,0.00,,,0.00,meteobridge,2013-08-30 01:34:00,
2013-08-29 21:39:00,62.1,58.5,30.00,West,270,0.7,1.6,88,0.00,,,0.00,meteobridge,2013-08-30 01:39:00,
2013-08-29 21:44:00,61.9,58.3,29.99,NW,315,0.0,0.0,88,0.00,,,0.00,meteobridge,2013-08-30 01:44:00,
2013-08-29 21:49:00,61.9,58.3,29.99,North,0,1.6,1.6,88,0.00,,,0.00,meteobridge,2013-08-30 01:49:00,
2013-08-29 21:54:00,61.7,58.1,29.99,West,270,0.7,0.7,88,0.00,,,0.00,meteobridge,2013-08-30 01:54:00,
2013-08-29 21:59:00,61.7,58.5,29.99,NE,45,0.7,1.6,89,0.00,,,0.00,meteobridge,2013-08-30 01:59:00,
2013-08-29 22:05:00,61.5,58.3,29.99,West,270,1.6,1.6,89,0.00,,,0.00,meteobridge,2013-08-30 02:05:00,
2013-08-29 22:10:00,61.5,58.3,29.99,North,0,0.7,0.7,89,0.00,,,0.00,meteobridge,2013-08-30 02:10:00,
2013-08-29 22:15:00,61.5,58.3,29.99,West,270,1.6,1.6,89,0.00,,,0.00,meteobridge,2013-08-30 02:15:00,
2013-08-29 22:20:00,61.3,58.1,29.99,West,270,0.0,0.7,89,0.00,,,0.00,meteobridge,2013-08-30 02:20:00,
2013-08-29 22:25:00,61.3,58.5,29.99,SE,135,0.7,0.7,90,0.00,,,0.00,meteobridge,2013-08-30 02:25:00,
2013-08-29 22:30:00,61.3,58.5,29.99,NE,45,0.7,0.7,90,0.00,,,0.00,meteobridge,2013-08-30 02:30:00,
2013-08-29 22:36:00,61.3,58.5,29.99,SE,135,0.0,0.0,90,0.00,,,0.00,meteobridge,2013-08-30 02:36:00,
2013-08-29 22:41:00,61.3,58.5,29.99,NW,315,0.0,2.2,90,0.00,,,0.00,meteobridge,2013-08-30 02:41:00,
2013-08-29 22:46:00,61.3,58.5,29.99,NW,315,0.0,0.7,90,0.00,,,0.00,meteobridge,2013-08-30 02:46:00,
2013-08-29 22:51:00,61.3,58.5,29.99,West,270,0.7,0.7,90,0.00,,,0.00,meteobridge,2013-08-30 02:51:00,
2013-08-29 22:56:00,61.2,58.3,29.98,West,270,0.7,0.7,90,0.00,,,0.00,meteobridge,2013-08-30 02:56:00,
2013-08-29 23:01:00,61.2,58.5,29.98,North,0,0.7,0.7,91,0.00,,,0.00,meteobridge,2013-08-30 03:01:00,
2013-08-29 23:07:00,61.2,58.5,29.99,NW,315,0.0,0.7,91,0.00,,,0.00,meteobridge,2013-08-30 03:07:00,
2013-08-29 23:12:00,61.2,58.5,29.99,SE,135,0.7,0.7,91,0.00,,,0.00,meteobridge,2013-08-30 03:12:00,
2013-08-29 23:17:00,61.0,58.3,29.98,West,270,0.0,0.7,91,0.00,,,0.00,meteobridge,2013-08-30 03:17:00,
2013-08-29 23:22:00,61.0,58.3,29.98,West,270,0.0,0.7,91,0.00,,,0.00,meteobridge,2013-08-30 03:22:00,
2013-08-29 23:27:00,61.0,58.6,29.98,NW,315,1.6,1.6,92,0.00,,,0.00,meteobridge,2013-08-30 03:27:00,
2013-08-29 23:32:00,61.0,58.6,29.98,NE,45,0.7,0.7,92,0.00,,,0.00,meteobridge,2013-08-30 03:32:00,
2013-08-29 23:38:00,60.8,58.5,29.98,NE,45,0.0,0.0,92,0.00,,,0.00,meteobridge,2013-08-30 03:38:00,
2013-08-29 23:43:00,60.6,58.6,29.97,West,270,0.0,0.0,93,0.00,,,0.00,meteobridge,2013-08-30 03:43:00,
2013-08-29 23:48:00,60.6,58.6,29.97,North,0,0.0,0.0,93,0.00,,,0.00,meteobridge,2013-08-30 03:48:00,
2013-08-29 23:53:00,60.4,58.5,29.98,NE,45,0.0,0.0,93,0.00,,,0.00,meteobridge,2013-08-30 03:53:00,
2013-08-29 23:58:00,60.4,58.5,29.97,SE,135,0.0,0.0,93,0.00,,,0.00,meteobridge,2013-08-30 03:58:00,